FREGAT DEB, 46524

Orbit data source: Space-Track

FREGAT DEB, 46524 is space debris in LEO originally from a launch on Mon, 18 Jul 2011 UTC launched from the Tyuratam Missile And Space Complex (TTMTR). Debris objects in space refer to the collection of defunct objects orbiting the Earth. Examples of debris include non-operational satellites, rocket bodies, and fragments generated from explosions, collisions, or faulty payload assembly.

Loading next visibility...
Identifier
46524, 2011-037MC
Orbit
LEO
Country
Flag of CISCIS
Related business
Manufacturer
Lavochkin
Mission
Spacecraft
Bus & Motor
Unknown
Mass
Unknown
Launch date (UTC)
2011-07-18 (15 years ago)
Launch vehicle
Unknown
Launch site
Tyuratam Missile And Space Complex (TTMTR)
Object type
Payload
Rocket body
Debris
Shape & HBR
Unknown shape, 0.1 m
Radar Cross Section
Small (<0.1 m²)

Expand to show TLE details & history
Last TLE update: 2 days ago

TLE from 2 days ago
0 FREGAT DEB
1 46524U 11037MC  26125.69995248 -.00001187  00000-0 -29462-2 0  9995
2 46524  51.6349   1.7748 1823509 291.1135  50.4716 10.61269357220757
Epoch: 2026-05-05T16:47Z
TLE epoch observation values (Epoch: 2026-05-05T16:47:55.894Z)
Latitude
-0.00009°
Longitude
-113.7792°
Altitude
1,559.201 km
Speed
7.409 km/s
True Right ascension
00h 07m 05s
True Declination
0° 00' 00"
Sunlit
Object was in daylight at epoch
Visualization orbit readout
Latitude
Unknown
Longitude
Unknown
Altitude
Unknown
Speed
Unknown
Apparent Right ascension
Unknown
Apparent Declination
Unknown
Sunlit
N/A
Visualization observer readout
Local Sidereal Time
15:04:19
Azimuth
Unknown
Elevation
Unknown
Doppler factor
Unknown
Orbital elements
Apogee altitude
3,964.197 km
Perigee altitude
774.054 km
Semi-major axis
8,747.263 km
Eccentricity
0.18235
Inclination
51.6349°
RAAN
1.7748°
Arg. of periapsis
291.1135°
True anomaly
68.96968°
Mean anomaly
50.4716°
Eccentric anomaly
59.47118°
Mean motion
2.65299 °/min
Orbital period
135.7 mins
BSTAR
-0.0029462
Loading maneuver chart data...
Computing Atmospheric mass density...
Loading historical data...
Loading historical data...
Loading historical data...
Loading historical data...
Loading historical data...
Loading historical data...
Loading historical data...

Documentation

Showing up to 5 results
|